Probability
29 39 55 72 86 94 98 100 100 100 100 100 100 100 99 92 81 68 61 58 54 50 51 55 54 45 34 24 15 10 6 3 2 2 1 0 0 0 0 0 0 0 0
47 54 65 77 88 96 99 100 100 100 100 100 100 99 95 86 73 61 53 47 42 37 36 39 38 30 22 14 9 6 4 2 1 1 0 0 0 0 0 0 0 0 0
67 73 80 87 93 97 99 100 100 100 100 100 99 96 87 75 61 48 38 29 23 19 18 18 17 13 8 5 2 2 1 0 0 0 0 0 0 0 0 0 0 0 0
80 84 89 93 95 96 97 97 98 97 96 95 94 89 77 63 48 34 23 15 9 7 7 6 5 3 2 1 0 0 0 0 0 0 0 0 0 0 0 0 0 0 0
83 83 86 88 90 90 90 90 89 87 84 83 81 75 63 48 34 22 12 6 3 2 2 1 1 1 0 0 0 0 0 0 0 0 0 0 0 0 0 0 0 0 0
70 67 67 71 74 77 77 76 74 69 65 65 64 57 44 30 19 11 6 3 1 0 0 0 0 0 0 0 0 0 0 0 0 0 0 0 0 0 0 0 0 0 0
45 42 42 45 49 52 54 52 49 45 42 42 41 36 25 15 9 6 3 2 1 0 0 0 0 0 0 0 0 0 0 0 0 0 0 0 0 0 0 0 0 0 0
22 21 20 22 24 26 27 25 23 20 18 17 16 14 10 6 4 3 2 1 1 0 0 0 0 0 0 0 0 0 0 0 0 0 0 0 0 0 0 0 0 0 0
9 8 8 7 8 9 9 8 7 6 5 3 2 2 2 1 1 1 1 0 0 0 0 0 0 0 0 0 0 0 0 0 0 0 0 0 0 0 0 0 0 0 0
3 2 1 1 1 1 2 2 2 1 1 0 0 0 0 0 0 0 0 0 0 0 0 0 0 0 0 0 0 0 0 0 0 0 0 0 0 0 0 0 0 0 0
1 0 0 0 0 0 0 1 1 0 0 0 0 0 0 0 0 0 0 0 0 0 0 0 0 0 0 0 0 0 0 0 0 0 0 0 0 0 0 0 0 0 0
0 0 0 0 0 0 0 0 0 0 0 0 0 0 0 0 0 0 0 0 0 0 0 0 0 0 0 0 0 0 0 0 0 0 0 0 0 0 0 0 0 0 0
0 0 0 0 0 0 0 0 0 0 0 0 0 0 0 0 0 0 0 0 0 0 0 0 0 0 0 0 0 0 0 0 0 0 0 0 0 0 0 0 0 0 0
0 0 0 0 0 0 0 0 0 0 0 0 0 0 0 0 0 0 0 0 0 0 0 0 0 0 0 0 0 0 0 0 0 0 0 0 0 0 0 0 0 0 0
0 0 0 0 0 0 0 0 0 0 0 0 0 0 0 0 0 0 0 0 0 0 0 0 0 0 0 0 0 0 0 0 0 0 0 0 0 0 0 0 0 0 0
0 0 0 0 0 0 0 0 0 0 0 0 0 0 0 0 0 0 0 0 0 0 0 0 0 0 0 0 0 0 0 0 0 0 0 0 0 0 0 0 0 0 0
0 0 0 0 0 0 0 0 0 0 0 0 0 0 0 0 0 0 0 0 0 0 0 0 0 0 0 0 0 0 0 0 0 0 0 0 0 0 0 0 0 0 0
0 0 0 0 0 0 0 0 0 0 0 0 0 0 0 0 0 0 0 0 0 0 0 0 0 0 0 0 0 0 0 0 0 0 0 0 0 0 0 0 0 0 0
0 0 0 0 0 0 0 0 0 0 0 0 0 0 0 0 0 0 0 0 0 0 0 0 0 0 0 0 0 0 0 0 0 0 0 0 0 0 0 0 0 0 0
0 0 0 0 0 0 0 0 0 0 0 0 0 0 0 0 0 0 0 0 0 0 0 0 0 0 0 0 0 0 0 0 0 0 0 0 0 0 0 0 0 0 0
0 0 0 0 0 0 0 0 0 0 0 0 0 0 0 0 0 0 0 0 0 0 0 0 0 0 0 0 0 0 0 0 0 0 0 0 0 0 0 0 0 0 0
0 0 0 0 0 0 0 0 0 0 0 0 0 0 0 0 0 0 0 0 0 0 0 0 0 0 0 0 0 0 0 0 0 0 0 0 0 0 0 0 0 0 0
0 0 0 0 0 0 0 0 0 0 0 0 0 0 0 0 0 0 0 0 0 0 0 0 0 0 0 0 0 0 0 0 0 0 0 0 0 0 0 0 0 0 0
0 0 0 0 0 0 0 0 0 0 0 0 0 0 0 0 0 0 0 0 0 0 0 0 0 0 0 0 0 0 0 0 0 0 0 0 0 0 0 0 0 0 0
0 0 0 0 0 0 0 0 0 0 0 0 0 0 0 0 0 0 0 0 0 0 0 0 0 0 0 0 0 0 0 0 0 0 0 0 0 0 0 0 0 0 0
0 0 0 0 0 0 0 0 0 0 0 0 0 0 0 0 0 0 0 0 0 0 0 0 0 0 0 0 0 0 0 0 0 0 0 0 0 0 0 0 0 0 0
Wind_Speed
7 5 5 10 11 13 14 12 11 10 10 8 8 7 6 6 5 5 6 6 4 4 3 3 3 3 3 4 5 4 4 3 1 1 1 2 3 3 2 2 1 2 2
7 7 6 6 8 10 12 12 11 11 10 7 5 5 6 5 5 5 6 6 5 4 3 4 4 4 4 4 4 3 2 2 1 1 0 2 2 1 3 2 2 3 2
10 10 10 8 6 5 8 10 11 11 10 9 7 7 6 5 4 5 5 6 6 6 5 5 4 4 4 3 3 2 3 2 1 1 1 0 1 3 1 2 2 2 2
13 12 11 10 9 5 4 7 9 10 10 10 10 11 7 6 5 5 6 7 7 7 7 6 6 5 4 4 3 3 2 2 2 1 1 1 1 1 3 2 3 4 4
15 15 15 13 11 9 7 7 9 9 9 8 9 9 7 7 7 8 9 8 8 8 8 8 7 6 5 6 6 5 4 3 2 1 1 1 1 2 2 4 4 3 3
16 15 14 14 14 12 10 10 12 11 9 8 8 9 10 11 11 10 9 7 6 7 9 8 7 7 6 6 5 4 5 3 3 3 2 1 1 1 2 3 4 4 4
14 14 13 13 14 14 14 13 14 13 12 11 10 10 11 11 11 10 9 8 6 6 7 7 7 6 5 5 4 4 4 3 3 3 2 2 2 2 3 4 4 5 5
13 13 12 12 12 13 13 14 15 14 14 14 13 12 11 9 8 9 9 8 7 7 7 6 6 5 5 4 3 3 2 2 2 2 1 2 2 3 3 3 4 6 5
13 12 12 12 12 12 13 14 15 15 14 14 14 13 12 11 11 10 10 8 7 7 7 6 5 5 4 3 2 2 2 2 2 3 3 3 3 3 3 4 4 5 7
13 12 11 11 11 12 12 13 14 14 13 12 12 11 11 11 10 10 10 8 7 6 6 6 5 4 4 3 3 2 3 2 2 2 2 2 3 4 4 4 4 5 6
12 11 10 10 11 12 12 12 13 13 13 13 12 12 11 11 11 10 9 8 7 6 6 5 4 4 4 4 3 3 2 3 3 4 5 5 5 4 4 5 5 5 6
12 11 11 10 11 11 11 11 11 12 12 12 12 11 11 11 10 10 9 7 6 5 5 4 4 3 4 4 4 5 5 5 5 5 5 5 5 5 5 4 6 5 6
12 11 10 10 10 10 10 11 11 11 12 12 12 11 11 10 10 9 7 6 5 5 4 3 4 4 4 5 6 7 6 5 5 5 5 5 5 5 4 5 5 5 6
11 11 10 9 9 9 10 11 11 11 11 12 12 11 10 9 8 7 6 6 5 4 4 4 5 5 8 10 10 9 8 7 6 5 5 5 5 5 5 5 5 6 6
11 11 10 9 9 10 10 10 10 10 10 11 11 10 8 7 7 6 6 5 4 5 5 5 5 6 8 9 9 9 9 9 8 6 5 6 8 8 5 6 5 6 7
11 11 10 10 9 9 9 10 9 9 9 9 9 8 7 6 6 5 5 5 5 5 5 5 6 7 7 8 9 8 8 9 9 7 6 7 7 6 6 8 10 10 10
11 10 9 9 8 7 7 7 7 7 7 7 7 6 6 5 4 5 6 5 5 5 4 5 5 5 6 5 5 8 8 9 7 6 6 7 8 6 5 8 12 12 14
10 9 9 8 7 6 6 6 7 6 6 6 5 5 4 5 5 5 5 4 3 3 2 2 3 2 4 2 3 9 9 8 6 6 6 6 5 4 6 9 11 10 10
10 8 8 8 6 6 5 6 6 5 5 5 5 4 5 5 4 4 3 3 2 1 1 1 1 1 3 3 2 7 8 6 7 7 7 6 5 4 7 9 11 11 10
8 8 7 7 6 5 5 5 4 4 4 4 4 4 4 4 4 3 3 2 1 2 2 1 1 1 1 5 2 5 7 7 7 7 7 4 3 7 9 9 10 12 11
9 8 7 6 5 5 4 4 4 4 4 4 4 4 3 2 3 2 1 2 2 2 2 2 2 1 2 5 4 3 5 7 8 8 7 5 6 11 13 11 9 11 12
9 7 6 6 4 4 4 4 4 4 3 3 3 2 1 1 3 0 1 2 3 3 3 2 2 1 2 3 2 4 6 7 8 8 7 8 13 16 16 12 12 15 12
8 6 6 5 4 3 3 4 4 3 3 3 3 2 1 1 0 1 2 1 2 2 3 3 3 3 3 2 2 5 8 9 7 7 11 14 16 15 11 10 12 10 6
7 6 6 5 4 3 3 4 3 2 2 2 1 2 2 2 1 2 2 2 4 5 6 6 5 5 4 6 7 7 8 9 8 8 12 14 13 10 9 8 7 4 4
6 5 5 5 6 5 4 4 3 2 1 0 1 1 1 2 2 0 3 4 6 5 5 6 6 6 6 6 6 6 7 7 8 10 8 7 6 6 6 6 6 5 5
6 5 5 6 5 5 4 4 3 2 1 1 1 2 1 1 2 1 4 8 7 8 7 5 4 4 4 7 9 9 11 12 12 8 6 6 6 7 7 7 7 6 5
Wind_Direction
173 151 147 144 153 155 151 159 166 157 157 163 165 161 146 134 124 111 108 109 111 115 122 124 120 121 117 120 119 112 105 91 62 58 304 267 235 229 219 228 273 288 283
75 69 71 95 143 147 154 160 163 161 163 155 148 137 129 121 113 102 93 91 90 86 93 97 107 109 112 117 124 123 120 102 99 119 32 310 292 247 236 205 209 244 262
53 50 41 46 72 124 155 166 165 158 154 140 131 124 112 107 111 110 92 76 78 78 80 90 96 105 115 125 128 133 140 139 121 78 132 154 319 349 295 242 246 240 237
51 44 40 30 41 47 120 137 142 139 139 139 145 147 147 142 127 112 96 81 71 74 76 78 80 82 86 92 86 66 64 117 123 107 76 100 98 358 328 309 271 249 242
58 47 39 34 34 42 64 99 111 117 125 131 137 139 128 113 108 101 96 85 73 71 75 77 81 83 81 80 76 67 57 60 84 93 107 150 185 204 242 290 307 305 270
63 54 45 41 39 43 58 78 88 88 94 103 114 119 117 115 113 106 102 93 87 81 80 82 83 83 84 83 83 78 72 64 63 52 44 28 352 314 279 286 300 299 301
65 56 49 47 46 48 54 68 76 74 74 78 85 94 102 105 106 107 103 102 96 88 83 85 85 85 85 86 82 77 71 60 53 32 18 5 338 320 307 301 304 306 304
70 63 56 55 54 56 59 69 75 75 73 76 77 79 84 89 92 94 99 97 95 94 96 95 93 92 92 90 83 78 75 66 36 350 355 321 310 322 318 310 312 307 301
77 71 64 62 63 64 66 73 78 77 76 79 80 79 80 86 92 93 93 96 103 110 106 102 99 97 90 85 86 87 61 47 3 350 3 359 336 317 327 328 317 302 301
84 77 73 71 71 72 73 75 79 81 82 83 86 88 88 90 92 93 93 96 98 100 104 100 95 90 81 65 37 57 53 12 4 355 348 335 329 350 328 318 320 311 302
93 88 82 80 80 80 80 81 83 85 85 86 89 91 92 93 93 93 93 92 93 92 92 95 93 90 78 56 34 18 25 9 5 350 357 357 344 334 338 327 315 316 324
99 95 92 89 86 86 86 86 87 88 89 90 91 90 90 90 91 91 91 90 89 88 88 85 78 71 71 50 25 10 18 8 5 360 351 342 336 343 327 325 325 320 314
100 96 92 90 91 91 91 89 90 92 94 94 92 89 88 87 87 88 88 87 84 78 74 71 67 52 52 50 31 19 8 2 350 342 332 329 323 313 321 324 313 309 312
105 100 93 88 87 87 87 88 87 89 91 90 89 86 86 87 88 86 81 77 74 72 61 54 52 48 49 44 29 12 351 344 338 330 323 316 313 312 325 314 306 315 318
102 97 90 83 80 79 79 78 79 81 86 90 90 88 86 85 84 81 76 67 52 55 51 49 51 56 64 43 29 360 345 338 326 320 318 317 314 306 291 292 309 309 302
98 95 90 84 80 79 80 80 78 79 82 87 91 92 93 91 90 88 77 66 56 48 42 39 46 49 64 62 35 360 336 321 313 317 325 316 310 335 305 290 293 287 288
97 95 92 87 82 80 85 92 93 93 92 92 96 98 95 87 78 80 75 64 56 51 45 43 53 76 93 70 17 346 321 305 302 314 317 316 323 340 344 325 310 299 293
107 104 100 96 91 90 92 95 96 99 105 109 107 102 98 87 79 72 65 60 50 38 38 54 60 92 123 127 343 333 317 307 315 321 312 312 318 19 352 323 310 302 301
106 103 103 102 99 97 98 100 101 104 104 100 98 92 85 83 79 73 66 64 50 17 338 71 55 75 154 189 310 336 320 327 336 326 319 319 324 19 337 319 310 308 307
103 106 105 103 104 102 102 105 108 108 105 104 99 87 74 75 73 64 44 40 353 323 325 10 352 321 135 167 225 325 328 335 331 319 314 326 334 327 319 316 310 305 308
107 108 107 107 110 118 120 118 121 117 109 107 101 91 91 101 95 70 12 325 314 321 316 310 317 343 77 159 200 286 325 334 325 320 320 321 327 320 313 308 293 287 300
116 116 113 110 115 125 130 123 117 113 114 113 111 112 100 68 99 76 294 301 312 308 308 321 340 23 93 108 190 269 298 305 311 312 317 322 321 314 308 303 290 295 301
119 119 121 121 126 133 135 120 125 130 128 122 123 124 95 38 28 282 287 291 312 334 346 357 6 20 42 68 358 314 308 308 308 315 320 315 308 307 302 298 301 303 298
128 132 128 121 118 116 115 116 108 104 104 118 152 184 192 228 243 279 312 6 20 16 3 7 7 10 31 26 4 346 338 340 335 336 320 310 303 300 296 302 309 307 307
126 126 124 121 115 110 105 100 98 86 84 160 248 272 260 265 264 219 41 42 66 60 30 16 3 4 5 6 340 329 330 329 320 320 309 314 325 331 336 334 331 328 326
123 122 117 109 107 105 95 87 89 86 51 319 304 294 288 280 304 124 112 67 103 109 90 63 19 24 19 335 330 327 322 315 312 315 316 324 330 335 334 331 329 328 324